Morganton, NC

2:03 AM EDT on April 24, 2017 (GMT -0400)
Morganton-Lenoir

Weather History for KMRN - March, 2014

Change the Weather History Date:

Monday, March 3, 2014

  Actual Average (KHKY) Record (KHKY)
Temperature  
Mean Temperature 46 °F -  
Max Temperature 62 °F 59 °F 83 °F (1976)
Min Temperature 30 °F 37 °F 9 °F (1980)
Degree Days  
Heating Degree Days 18    
Moisture  
Dew Point 39 °F    
Average Humidity 80    
Maximum Humidity 98    
Minimum Humidity 51    
Precipitation  
Precipitation 0.10 in - - ()
Sea Level Pressure  
Sea Level Pressure 29.99 in    
Wind  
Wind Speed 6 mph (East)    
Max Wind Speed 13 mph    
Max Gust Speed 18 mph    
Visibility 9 miles    
Events Rain , Snow    
Averages and records for this station are not official NWS values.
T = Trace of Precipitation, MM = Missing Value Source: NWS Daily Summary

Daily Weather History Graph

Daily Weather History Graph

Search for Another Location

Airport or City:

Trip Planner

Search our weather history database for the weather conditions in past years. The results will help you decide how hot, cold, wet, or windy it might be!

Date:

Astronomy

Mar. 03, 2014 Rise Set
Actual Time 6:53 AM EST 6:23 PM EST
Civil Twilight 6:28 AM EST 6:49 PM EST
Nautical Twilight 5:58 AM EST 7:18 PM EST
Astronomical Twilight 5:29 AM EST 7:48 PM EST
Moon 8:07 AM EST (3/3) 9:17 PM EST (3/3)
Length of Visible Light 12h 20m
Length of Day
11h 29m
Waxing Crescent, 8% of the Moon is Illuminated
Mar 3
Waxing Crescent
Mar 8
First Quarter
Mar 16
Full
Mar 23
Last Quarter
Mar 30
New

Hourly Weather History & Observations

Time (EST) Temp. Windchill Dew Point Humidity Pressure Visibility Wind Dir Wind Speed Gust Speed Precip Events Conditions
12:10 AM 63.5 °F - 44.8 °F 51% 29.92 in 10.0 mi SW 10.4 mph - N/A   Clear
12:35 AM 63.0 °F - 44.8 °F 51% 29.90 in 10.0 mi SW 10.4 mph - N/A   Clear
12:55 AM 62.6 °F - 45.0 °F 52% 29.90 in 10.0 mi SW 5.8 mph - N/A   Clear
1:15 AM 62.1 °F - 45.0 °F 53% 29.90 in 10.0 mi SSW 10.4 mph - N/A   Scattered Clouds
1:35 AM 61.9 °F - 45.0 °F 54% 29.89 in 10.0 mi SSW 5.8 mph - N/A   Mostly Cloudy
1:55 AM 61.7 °F - 45.0 °F 54% 29.89 in 10.0 mi SSW 5.8 mph - N/A   Scattered Clouds
2:15 AM 61.0 °F - 44.6 °F 55% 29.88 in 10.0 mi SSW 8.1 mph - N/A   Scattered Clouds
2:35 AM 60.4 °F - 44.6 °F 56% 29.87 in 10.0 mi South 4.6 mph - N/A   Scattered Clouds
2:55 AM 60.4 °F - 44.6 °F 56% 29.86 in 10.0 mi SW 6.9 mph - N/A   Mostly Cloudy
3:15 AM 60.1 °F - 44.6 °F 57% 29.85 in 10.0 mi SW 9.2 mph - N/A   Mostly Cloudy
3:35 AM 59.9 °F - 44.6 °F 57% 29.83 in 10.0 mi SSW 8.1 mph - N/A   Mostly Cloudy
3:55 AM 59.9 °F - 44.6 °F 57% 29.83 in 10.0 mi SSW 4.6 mph - N/A   Overcast
4:15 AM 59.9 °F - 44.6 °F 57% 29.82 in 10.0 mi WSW 4.6 mph - N/A   Overcast
4:35 AM 59.7 °F - 44.6 °F 57% 29.82 in 10.0 mi SW 3.5 mph - N/A   Overcast
4:50 AM 59.9 °F - 44.1 °F 56% 29.83 in 10.0 mi WSW 5.8 mph - N/A   Overcast
5:15 AM 59.9 °F - 44.2 °F 56% 29.82 in 10.0 mi SSW 6.9 mph - N/A Rain Light Rain
5:35 AM 59.5 °F - 43.9 °F 56% 29.81 in 10.0 mi Calm Calm - N/A   Overcast
5:55 AM 58.5 °F - 44.1 °F 59% 29.81 in 10.0 mi NW 4.6 mph - N/A   Overcast
6:15 AM 57.2 °F - 44.8 °F 63% 29.81 in 10.0 mi NNE 3.5 mph - N/A Rain Light Rain
6:35 AM 56.7 °F - 45.0 °F 65% 29.80 in 10.0 mi North 3.5 mph - N/A   Overcast
6:55 AM 56.3 °F - 45.9 °F 68% 29.83 in 10.0 mi NNW 4.6 mph - N/A Rain Light Rain
7:15 AM 55.0 °F - 46.8 °F 74% 29.83 in 10.0 mi NNW 3.5 mph - N/A Rain Light Rain
7:35 AM 54.5 °F - 46.9 °F 76% 29.83 in 10.0 mi Calm Calm - N/A   Light Drizzle
7:55 AM 55.4 °F - 46.0 °F 71% 29.85 in 10.0 mi SSW 3.5 mph - N/A   Light Drizzle
8:15 AM 55.0 °F - 46.6 °F 73% 29.85 in 10.0 mi Calm Calm - N/A   Scattered Clouds
8:35 AM 55.4 °F - 46.9 °F 73% 29.85 in 10.0 mi Calm Calm - N/A   Mostly Cloudy
8:55 AM 55.8 °F - 47.7 °F 74% 29.85 in 10.0 mi Calm Calm - N/A   Overcast
9:15 AM 56.3 °F - 47.3 °F 72% 29.86 in 10.0 mi Calm Calm - N/A   Overcast
9:35 AM 56.5 °F - 47.3 °F 71% 29.85 in 10.0 mi ENE 4.6 mph - N/A   Mostly Cloudy
9:55 AM 56.7 °F - 47.8 °F 72% 29.88 in 10.0 mi Calm Calm - N/A   Mostly Cloudy
10:15 AM 56.8 °F - 47.3 °F 70% 29.88 in 10.0 mi ESE 5.8 mph - N/A   Overcast
10:35 AM 51.3 °F - 46.8 °F 85% 29.90 in 10.0 mi North 9.2 mph - N/A   Overcast
10:55 AM 48.7 °F - 44.6 °F 86% 29.91 in 10.0 mi ENE 12.7 mph 18.4 mph N/A Rain Light Rain
11:15 AM 46.6 °F - 43.9 °F 90% 29.92 in 7.0 mi ENE 9.2 mph 17.3 mph N/A Rain Light Rain
11:35 AM 44.2 °F 39.2 °F 42.3 °F 93% 29.94 in 5.0 mi ENE 9.2 mph - 0.01 in Rain Rain
11:55 AM 43.2 °F 41.5 °F 42.1 °F 96% 29.95 in 5.0 mi NE 3.5 mph - 0.02 in Rain Rain
12:15 PM 41.9 °F 36.9 °F 41.2 °F 97% 29.96 in 10.0 mi North 8.1 mph - N/A   Drizzle
12:35 PM 41.4 °F 36.8 °F 40.5 °F 97% 29.96 in 7.0 mi NNE 6.9 mph - N/A Rain Rain
12:55 PM 39.9 °F 34.5 °F 38.8 °F 96% 29.97 in 7.0 mi North 8.1 mph - 0.01 in Rain Rain
1:15 PM 38.7 °F 32.4 °F 37.6 °F 96% 29.99 in 7.0 mi NNE 9.2 mph - 0.01 in Rain Light Rain
1:35 PM 38.3 °F 33.9 °F 37.4 °F 97% 29.99 in 5.0 mi NNE 5.8 mph - 0.01 in Rain Rain
1:55 PM 38.5 °F - 37.8 °F 97% 30.01 in 3.0 mi Calm Calm - 0.02 in Rain Rain
2:15 PM 38.3 °F 33.2 °F 37.6 °F 97% 30.01 in 5.0 mi NE 6.9 mph - 0.01 in Rain Rain
2:35 PM 37.2 °F 33.6 °F 36.3 °F 97% 30.03 in 3.0 mi North 4.6 mph - 0.02 in Rain Rain
2:55 PM 36.5 °F 31.0 °F 36.0 °F 98% 30.03 in 5.0 mi NE 6.9 mph - 0.04 in Rain Light Rain
3:15 PM 36.3 °F 29.5 °F 35.4 °F 97% 30.04 in 7.0 mi ENE 9.2 mph 16.1 mph N/A Rain Light Rain
3:35 PM 35.6 °F 30.7 °F 34.7 °F 97% 30.05 in 4.0 mi East 5.8 mph - 0.01 in Snow Light Snow
3:55 PM 34.3 °F 29.2 °F 33.4 °F 97% 30.06 in 1.8 mi ENE 5.8 mph - 0.01 in Snow Light Snow
4:15 PM 34.7 °F 28.1 °F 33.8 °F 97% 30.07 in 10.0 mi ENE 8.1 mph - N/A Rain Light Rain
4:35 PM 34.7 °F 27.5 °F 33.8 °F 97% 30.08 in 10.0 mi ENE 9.2 mph - N/A   Overcast
4:55 PM 34.7 °F 30.6 °F 33.3 °F 94% 30.09 in 10.0 mi East 4.6 mph - N/A   Overcast
5:15 PM 34.7 °F 30.6 °F 33.3 °F 94% 30.09 in 10.0 mi ENE 4.6 mph - N/A   Overcast
5:35 PM 34.7 °F - 33.4 °F 95% 30.12 in 10.0 mi Calm Calm - N/A   Overcast
5:55 PM 34.5 °F 30.4 °F 33.3 °F 95% 30.12 in 10.0 mi ENE 4.6 mph - N/A   Overcast
6:15 PM 34.5 °F 31.6 °F 33.6 °F 97% 30.13 in 7.0 mi ENE 3.5 mph - N/A Rain Light Rain
6:35 PM 33.8 °F 29.6 °F 32.9 °F 96% 30.14 in 10.0 mi East 4.6 mph - N/A   Overcast
6:55 PM 33.3 °F 28.9 °F 32.2 °F 96% 30.15 in 10.0 mi ENE 4.6 mph - N/A   Overcast
7:15 PM 32.9 °F 26.7 °F 32.0 °F 96% 30.16 in 10.0 mi ENE 6.9 mph - N/A   Overcast
7:35 PM 32.2 °F 27.7 °F 31.1 °F 96% 30.18 in 10.0 mi ENE 4.6 mph - N/A   Overcast
7:55 PM 32.0 °F 27.5 °F 31.1 °F 96% 30.20 in 5.0 mi East 4.6 mph - N/A Snow Light Snow
8:15 PM 32.0 °F 28.7 °F 30.9 °F 96% 30.20 in 7.0 mi East 3.5 mph - N/A   Overcast
8:35 PM 31.8 °F 27.3 °F 30.6 °F 95% 30.21 in 10.0 mi ENE 4.6 mph - N/A   Overcast
8:55 PM 31.6 °F 26.0 °F 29.7 °F 92% 30.24 in 10.0 mi East 5.8 mph - N/A   Overcast
9:15 PM 31.6 °F 26.0 °F 29.3 °F 91% 30.23 in 10.0 mi East 5.8 mph - N/A   Overcast
9:35 PM 30.9 °F 27.5 °F 28.9 °F 92% 30.23 in 10.0 mi ESE 3.5 mph - N/A   Overcast
9:55 PM 30.9 °F 27.5 °F 28.6 °F 91% 30.23 in 10.0 mi East 3.5 mph - N/A   Overcast
10:15 PM 30.7 °F 26.0 °F 28.4 °F 91% 30.25 in 10.0 mi ESE 4.6 mph - N/A   Overcast
10:35 PM 30.6 °F 25.8 °F 28.0 °F 90% 30.24 in 10.0 mi ESE 4.6 mph - N/A   Overcast
10:55 PM 30.4 °F 26.9 °F 27.7 °F 90% 30.24 in 10.0 mi East 3.5 mph - N/A   Overcast
11:15 PM 30.4 °F 25.6 °F 27.3 °F 88% 30.26 in 10.0 mi ESE 4.6 mph - N/A   Overcast
11:35 PM 30.2 °F 25.4 °F 26.6 °F 86% 30.27 in 10.0 mi East 4.6 mph - N/A   Overcast
11:55 PM 30.0 °F 23.2 °F 25.9 °F 85% 30.25 in 10.0 mi East 6.9 mph - N/A   Overcast